Regional Weather Roundup
Issued by NWS Cleveland, OH

Home | Current Version | Previous Version | Graphics & Text | Print | Product List | Glossary On
Versions: 1 2 3 4 5 6 7 8 9 10 11 12 13 14 15 16 17 18 19 20 21 22 23 24 25 26 27 28 29 30 31 32 33 34 35 36 37 38 39 40 41 42 43 44 45 46 47 48 49 50
000
ASUS41 KCLE 010002
RWRCLE
OHIO REGIONAL WEATHER ROUNDUP
NATIONAL WEATHER SERVICE CLEVELAND, OH
700 PM EST SAT JAN 31 2015

NOTE: "FAIR" INDICATES FEW OR NO CLOUDS BELOW 12,000 FEET WITH NO
SIGNIFICANT WEATHER AND/OR OBSTRUCTIONS TO VISIBILITY.

OHZ001>008-015>018-024>027-034-035-043-044-010100-
   NORTHWEST OHIO

CITY           SKY/WX    TMP DP  RH WIND       PRES   REMARKS
DEFIANCE       CLOUDY    34  26  72 SW6       30.20S WCI  29
FINDLAY        MOCLDY    30  23  75 S8        30.20F WCI  22
TOLEDO EXPRESS MOCLDY    30  23  75 S5        30.19F WCI  25
TOLEDO EXEC    MOCLDY    30  23  75 S7        30.21F WCI  23
LIMA           CLOUDY    35  25  66 S6        30.20S
$$

OHZ009>014-019>023-028>033-038-089-010100-
   NORTHEAST OHIO

CITY           SKY/WX    TMP DP  RH WIND       PRES   REMARKS
CLE-HOPKINS    CLOUDY    30  19  63 SW10      30.24F WCI  21
CLE-LAKEFRONT  CLOUDY    31  20  63 SW10      30.22S WCI  22
CUY CO. ARPT   NOT AVBL
LORAIN-ELYRIA  CLOUDY    30  20  66 SW14      30.22F WCI  19
ASHTABULA      PTCLDY    23  13  65 S8        30.22S WCI  14
AKRON-CANTON   CLOUDY    28  17  63 SW9       30.23S WCI  19
WOOSTER        MOCLDY    27  18  69 SW8       30.23S WCI  19
MANSFIELD      MOCLDY    27  18  69 S10       30.21S WCI  17
YOUNGSTOWN     MOCLDY    23  14  68 S6        30.21F WCI  16
$$

OHZ042-051>053-060>062-070>072-077>081-010100-
  SOUTHWEST OHIO

CITY           SKY/WX    TMP DP  RH WIND       PRES   REMARKS
CINC-COVINGTON CLOUDY    36  21  54 S5        30.27R
CINC-LUNKEN    CLOUDY    32  23  69 S3        30.30R
HAMILTON       CLOUDY    36  21  54 CALM      30.28S
DAYTON         CLOUDY    35  23  61 S9        30.24F WCI  28
WRIGHT-PAT AFB NOT AVBL
DAYTON GENERAL CLOUDY    35  22  58 S9        30.24S WCI  28
WILMINGTON     CLOUDY    31  22  69 SW6       30.26R WCI  25
$$

OHZ036-037-039>041-045>050-054>059-063>069-073>076-082>088-010100-
  CENTRAL AND SOUTHEAST OHIO

CITY           SKY/WX    TMP DP  RH WIND       PRES   REMARKS
COLUMBUS       CLOUDY    32  22  66 S5        30.26R WCI  27
OSU AIRPORT    CLOUDY    33  22  63 S7        30.25R WCI  27
BOLTON FIELD   CLOUDY    32  25  74 S5        30.26R WCI  27
RICKENBACK AFB NOT AVBL
NEWARK         CLOUDY    31  22  69 CALM      30.26R
MARION         MOCLDY    28  20  71 S7        30.23F WCI  21
LANCASTER      CLOUDY    32  22  66 S3        30.27R
ZANESVILLE     MOCLDY    28  16  60 CALM      30.27R
NEW PHILLY     MOCLDY    28  16  60 CALM      30.27R
$$



USA.gov is the U.S. government's official web portal to all federal, state and local government web resources and services.